Flag for Germany Weather past 2 weeks in Singen (Hohentwiel), Baden-Württemberg, Germany

Now
66 °F

Clear.


Feels Like: 66 °F
Forecast: 55 / 87 °F
Wind: No wind

Location: Zurich-Kloten

Current Time: Aug 31, 2015 at 1:11:05 AM

Latest Report: Aug 31, 2015 at 12:20 AM


Visibility: 10 mi

Pressure: 30.09 "Hg

Humidity: 78%

Dew point: 59 °F

Location of Singen (Hohentwiel)Location

Historic Weather in Singen (Hohentwiel) — Graph

°F

Singen (Hohentwiel) temperature yesterday

Maximum temperature yesterday: 91 °F (at 3:20 PM)
Minimum temperature yesterday: 66 °F (at 1:20 AM)
Average temperature yesterday: 78 °F

Past Weeks' High & Low Weather Summary

 TemperatureHumidityPressure
High91 °F (Aug 30, 3:20 PM)100% (Aug 16, 12:50 AM)30.27 "Hg (Aug 16, 12:50 AM)
Low46 °F (Aug 26, 6:20 AM)24% (Aug 30, 4:20 PM)29.71 "Hg (Aug 24, 7:20 AM)
Average65 °F75%30.05 "Hg
* Reported Aug 16 12:50 AM — Aug 31 12:20 AM, Singen (Hohentwiel), Weather by CustomWeather, © 2015

Note: Actual official high and low records may vary slightly from our data, if they occured in-between our weather recording intervals... More about our weather records

Advertising

Singen (Hohentwiel) weather history for previous 24 hours

 ConditionsComfort  
Time TempWeatherWind HumidityBarometerVisibility
12:20 AM
Mon, Aug 31
66 °FClear.No wind78%30.09 "Hg10 mi
11:20 PM
Sun, Aug 30
70 °FClear.1 mph69%30.09 "Hg10 mi
10:50 PM68 °FClear.2 mph73%30.09 "Hg10 mi
10:20 PM68 °FClear.2 mph69%30.09 "Hg10 mi
9:20 PM73 °FClear.2 mph57%30.07 "Hg10 mi
8:50 PM77 °FSunny.3 mph47%30.07 "Hg10 mi
8:20 PM81 °FSunny.2 mph45%30.07 "Hg10 mi
7:50 PM84 °FSunny.5 mph35%30.07 "Hg10 mi
7:20 PM86 °FSunny.5 mph33%30.07 "Hg10 mi
6:50 PM90 °FSunny.6 mph26%30.07 "Hg10 mi
6:20 PM91 °FPassing clouds.5 mph28%30.07 "HgN/A
5:50 PM90 °FPassing clouds.5 mph27%30.07 "HgN/A
5:20 PM91 °FSunny.3 mph26%30.07 "Hg10 mi
4:50 PM91 °FSunny.3 mph26%30.07 "Hg10 mi
4:20 PM91 °FPassing clouds.3 mph24%30.07 "HgN/A
3:50 PM90 °FSunny.2 mph26%30.09 "Hg10 mi
3:20 PM91 °FSunny.2 mph26%30.09 "Hg10 mi
2:50 PM90 °FSunny.3 mph27%30.12 "Hg10 mi
2:20 PM90 °FSunny.6 mph29%30.12 "Hg10 mi
1:50 PM88 °FPassing clouds.6 mph31%30.12 "HgN/A
1:20 PM88 °FPassing clouds.6 mph31%30.15 "HgN/A
12:50 PM86 °FPassing clouds.6 mph35%30.15 "HgN/A
12:20 PM86 °FPassing clouds.6 mph40%30.15 "HgN/A
11:50 AM84 °FPassing clouds.5 mph45%30.18 "HgN/A
11:20 AM82 °FPassing clouds.3 mph48%30.18 "HgN/A
10:50 AM82 °FPassing clouds.5 mph51%30.18 "HgN/A
10:20 AM81 °FPassing clouds.6 mph58%30.18 "HgN/A
9:50 AM77 °FPassing clouds.5 mph69%30.18 "HgN/A
9:20 AM75 °FSunny.6 mph74%30.18 "Hg10 mi
8:50 AM73 °FSunny.6 mph74%30.18 "Hg10 mi
8:20 AM72 °FSunny.6 mph78%30.18 "Hg10 mi
7:50 AM70 °FSunny.6 mph83%30.18 "Hg10 mi
7:20 AM66 °FClear.7 mph94%30.18 "Hg10 mi
6:50 AM66 °FClear.5 mph94%30.18 "Hg10 mi
6:20 AM66 °FClear.5 mph88%30.15 "Hg10 mi
5:50 AM66 °FClear.6 mph88%30.15 "Hg10 mi
5:20 AM66 °FClear.5 mph94%30.15 "Hg10 mi
4:50 AM68 °FClear.3 mph88%30.15 "Hg10 mi
4:20 AM66 °FClear.5 mph88%30.15 "Hg10 mi
3:50 AM68 °FClear.5 mph88%30.15 "Hg10 mi
3:20 AM66 °FClear.3 mph88%30.15 "Hg10 mi
2:50 AM66 °FClear.3 mph94%30.15 "Hg10 mi
1:50 AM68 °FClear.1 mph88%30.15 "Hg10 mi
1:20 AM66 °FClear.No wind88%30.15 "Hg10 mi
Weather by CustomWeather, © 2015

See weather overviewHow to use our weather pages